Theta_e
322 322 322 323 323 323 321 320 319 319 319 319 319 319 319 319 319 318 318 318 317 317 316 316 315 314 313 313 313 313 313 313 313 313 312 313 313 313 313 313 312 312 311 311 311 311 312 312 312 312 312 312 312 312 312 311 311 311 310 309 309 308 308 309 309 309 309 308 308 308 308 309 308 308 307 306 305 304 304 303 301 300 299 298 297 296
322 322 322 323 323 322 320 319 319 319 319 319 320 319 319 319 319 318 318 317 316 316 316 316 315 314 313 313 312 312 312 312 312 312 312 312 313 313 313 312 312 311 311 311 311 311 311 312 312 312 312 312 312 311 311 311 311 310 310 309 309 308 307 307 307 307 307 307 307 307 307 307 306 305 305 304 304 303 302 301 300 299 298 297 296 294
322 322 322 322 322 321 320 319 318 319 319 319 319 319 319 319 319 318 317 316 315 315 315 315 314 314 313 312 312 311 311 311 311 311 312 312 313 313 313 312 311 311 311 311 311 311 311 311 311 311 311 311 311 311 311 310 310 309 309 308 308 307 306 306 306 305 305 305 305 305 305 304 304 303 303 303 302 302 301 300 299 298 297 295 294 293
321 321 321 321 321 320 319 319 318 319 319 319 319 319 319 319 319 318 316 315 314 315 315 314 314 313 313 312 311 311 310 310 311 311 312 312 313 313 313 312 311 311 311 311 311 311 311 311 311 311 311 311 310 310 310 310 309 309 308 307 306 306 305 305 304 304 304 304 304 303 303 302 302 302 302 301 301 300 299 298 297 296 295 294 293 292
321 320 320 320 319 319 318 318 318 319 319 319 319 319 319 319 318 317 315 315 314 314 314 314 313 313 312 312 311 310 310 310 310 311 312 312 313 313 313 312 311 311 310 311 311 311 311 311 311 311 310 310 310 310 309 309 308 307 307 306 305 304 304 303 303 303 303 303 302 302 302 302 301 301 301 300 300 299 298 297 295 294 293 292 292 292
320 319 319 319 319 319 318 318 318 318 318 318 318 318 318 318 317 315 314 314 314 313 313 313 313 312 312 311 311 310 309 310 310 311 311 312 313 313 313 312 311 310 310 310 310 310 310 310 310 310 310 310 309 309 309 308 307 307 306 305 304 304 303 303 302 302 302 302 302 302 302 301 301 300 300 299 298 297 296 295 293 292 292 292 291 291
320 319 318 318 318 318 319 318 318 318 318 318 318 317 317 316 315 314 313 313 313 313 312 313 313 312 311 311 310 309 309 309 310 310 311 311 312 312 313 312 311 310 310 310 310 310 310 310 310 309 309 309 309 309 308 307 306 306 305 304 303 303 303 302 302 302 302 302 302 302 301 301 300 299 298 298 297 296 294 293 292 291 291 291 291 291
319 318 318 318 318 318 319 318 318 318 318 317 317 317 316 315 314 313 313 313 312 312 311 312 312 312 311 311 310 309 309 309 310 310 310 311 311 312 312 312 311 310 310 310 309 309 309 309 309 309 309 309 308 308 307 307 306 305 304 304 303 303 303 303 302 302 302 302 301 301 300 299 298 298 297 296 295 294 293 292 291 291 291 291 291 291
318 318 318 318 318 318 318 318 318 317 317 316 316 316 315 314 313 313 313 312 312 311 310 311 311 312 311 311 310 309 309 310 310 310 310 310 310 311 312 311 311 310 310 309 309 309 309 309 308 308 308 308 308 307 307 306 305 304 304 303 303 303 303 302 302 302 301 300 300 299 298 297 297 296 295 294 293 292 291 291 291 291 291 291 291 291
317 317 317 317 317 317 317 317 316 316 316 315 315 314 314 313 313 313 313 312 312 311 310 310 311 311 311 311 310 310 310 309 309 309 309 309 310 310 311 311 311 310 309 309 308 308 308 308 308 308 308 307 307 307 306 305 304 304 304 303 303 303 302 302 301 300 299 298 297 297 296 295 295 294 293 292 292 291 291 290 290 291 291 291 291 291
317 317 317 317 317 316 316 316 315 315 314 314 314 313 313 312 312 312 312 312 311 311 310 310 310 310 310 311 311 310 310 310 310 309 309 309 309 310 310 310 310 310 309 308 308 308 308 307 307 307 307 307 306 306 305 305 304 304 303 303 302 301 300 299 298 297 296 295 295 294 294 293 293 292 292 291 291 290 290 290 290 290 290 290 290 290
317 317 317 316 316 316 315 314 314 313 313 313 312 312 312 312 312 311 311 311 311 311 310 310 310 310 310 310 311 311 311 310 310 310 310 309 309 309 310 310 310 310 309 308 307 307 307 307 307 307 307 306 306 305 305 304 304 303 302 301 300 298 297 295 294 293 293 292 292 292 292 291 291 291 291 290 290 290 290 290 290 290 290 290 290 290
317 317 317 316 315 315 314 314 313 312 312 312 312 312 312 312 311 311 311 310 310 310 310 310 310 310 310 310 311 311 311 310 310 310 310 310 309 309 309 309 309 309 308 308 307 307 307 307 306 306 306 306 306 305 305 304 303 302 301 299 297 295 293 292 292 291 291 291 291 291 291 291 291 291 290 290 290 290 290 290 290 290 290 290 290 291
317 316 316 315 314 314 313 313 312 312 312 312 312 312 312 312 312 311 311 310 310 310 310 310 310 310 309 310 310 310 310 310 310 309 309 309 309 309 308 309 309 309 308 307 307 306 306 306 306 306 306 305 305 305 304 303 302 300 298 296 294 292 291 290 290 290 290 290 290 290 290 290 290 290 290 290 290 290 290 290 290 290 290 290 290 292
317 316 315 314 313 313 312 312 312 312 312 312 312 311 311 311 311 311 310 310 310 309 309 309 310 310 309 309 309 310 310 310 309 309 309 309 308 308 308 308 308 308 307 307 306 306 306 306 305 305 305 305 305 304 304 302 300 298 295 293 292 290 290 290 290 290 290 290 290 290 290 290 290 290 290 290 290 290 290 290 290 290 290 290 290 293
317 316 315 314 313 312 312 312 312 311 311 311 311 311 311 311 311 311 310 310 310 309 309 309 309 309 309 309 309 309 309 309 309 309 309 308 308 308 307 307 308 307 307 306 306 306 306 305 305 305 305 305 304 304 303 301 299 296 293 292 290 290 290 290 290 290 290 290 290 290 290 290 290 290 290 290 290 290 290 290 290 290 290 290 290 292
317 316 315 314 313 312 312 311 311 311 311 311 311 311 310 310 310 310 310 310 310 309 309 309 308 308 307 307 307 308 308 308 308 308 308 308 308 307 307 307 307 307 306 306 306 305 305 305 305 304 304 304 304 303 302 300 297 294 292 290 290 290 290 290 290 290 290 290 290 290 290 290 291 290 290 290 290 290 290 290 290 290 290 290 290 291
317 316 314 313 312 312 311 311 311 311 311 311 311 311 310 310 309 309 309 309 309 309 309 309 309 308 308 307 307 307 308 308 308 308 307 307 307 307 307 307 307 306 306 306 305 305 305 305 304 304 304 304 303 303 301 299 296 293 291 290 290 289 290 290 290 290 290 290 290 290 290 290 290 291 290 290 290 290 290 290 290 290 290 290 290 290
316 315 314 313 312 311 311 311 311 311 311 311 311 310 310 309 308 308 308 308 308 308 308 308 308 308 308 308 308 308 308 308 308 308 307 307 307 307 307 306 306 306 305 305 305 305 304 304 304 304 303 303 303 302 300 298 295 292 290 290 289 289 289 290 290 290 290 290 290 290 290 290 290 290 290 290 290 290 290 290 290 290 290 290 290 290
315 314 313 312 312 311 311 311 311 311 311 311 310 310 309 309 308 308 308 308 308 308 308 308 308 308 308 308 309 308 308 307 307 307 307 306 306 306 306 306 306 305 305 305 305 304 304 304 303 303 303 303 302 301 300 297 294 292 290 289 289 289 289 290 290 290 290 290 290 290 290 290 290 290 290 290 290 290 290 290 290 290 290 290 290 290
312 312 312 311 311 311 311 311 311 310 310 310 309 309 309 308 308 307 307 307 307 307 307 307 307 307 307 307 308 308 307 307 307 306 306 306 306 306 306 306 305 305 305 305 304 304 304 303 303 303 302 302 302 301 299 296 293 291 290 289 289 289 289 289 290 290 290 290 290 290 290 290 290 290 290 290 290 290 290 290 290 290 291 291 291 290
311 311 311 311 311 311 311 310 310 310 309 309 309 309 308 308 307 307 307 307 307 306 306 306 306 306 306 306 307 307 307 307 306 306 306 306 306 305 305 305 305 305 305 304 304 304 303 303 303 302 302 302 301 300 298 295 293 291 289 289 289 289 289 289 289 290 290 290 290 290 290 290 290 290 290 290 290 290 290 290 291 291 291 291 291 291
310 310 310 310 310 310 310 309 309 309 309 309 308 308 308 307 307 307 307 306 306 306 306 306 306 306 305 305 305 305 305 305 305 305 305 305 305 305 305 305 305 304 304 304 304 303 303 302 302 302 301 301 301 299 297 295 292 290 289 289 289 289 289 289 289 289 289 290 290 290 290 290 290 290 290 290 290 290 291 291 291 291 291 291 292 292
310 310 310 310 309 309 309 309 309 309 308 308 308 307 306 306 306 305 305 305 305 305 305 305 305 305 304 304 304 304 304 304 304 304 304 304 304 305 305 304 304 304 304 304 303 303 302 302 302 301 301 301 300 299 296 294 292 290 289 289 289 289 289 289 289 289 289 290 290 290 290 290 290 290 290 290 291 291 291 291 291 291 292 292 292 292
310 310 309 309 309 309 309 309 309 309 308 307 307 306 305 304 304 304 304 303 304 304 304 304 304 303 303 303 303 303 303 303 303 303 303 303 303 304 304 304 304 304 303 303 302 302 302 302 301 301 301 300 299 298 296 293 291 290 289 289 289 289 289 289 289 289 289 289 290 290 290 290 290 291 291 291 291 291 291 291 291 291 292 292 292 292
309 309 309 309 309 309 309 309 308 308 307 307 306 305 304 304 303 303 303 303 303 303 303 303 303 303 303 303 303 303 303 303 303 303 303 303 303 303 303 303 303 303 303 302 302 302 301 301 301 300 300 300 299 297 295 292 291 289 289 289 289 289 289 289 289 289 289 290 290 290 290 290 291 291 291 291 291 291 291 291 291 292 292 292 292 292
309 308 308 308 308 308 308 308 307 307 306 306 305 304 304 304 303 303 303 303 303 303 302 302 302 302 302 302 302 302 302 302 302 302 303 303 303 303 303 303 303 303 302 302 301 301 301 300 300 300 300 299 298 296 294 292 290 289 288 288 288 289 289 289 289 289 289 290 290 290 290 291 291 291 291 291 291 291 291 292 292 292 292 292 292 292
308 308 308 307 307 307 307 307 307 306 306 305 304 304 303 303 303 303 303 303 303 303 302 302 302 302 302 302 302 302 302 302 302 302 302 302 303 303 303 303 302 302 302 301 301 300 300 300 300 300 299 298 297 295 293 291 290 289 288 288 288 288 289 289 289 289 289 290 290 290 290 291 291 291 291 291 291 291 291 292 292 292 292 292 292 292
308 307 307 307 307 307 307 306 306 306 305 304 304 303 303 303 303 304 304 303 303 303 303 303 302 302 302 302 302 301 301 302 302 302 302 302 302 303 303 302 302 302 302 301 300 300 300 300 300 299 299 297 296 294 292 290 289 289 288 288 288 288 289 289 289 289 289 290 290 290 290 291 291 291 291 291 291 291 291 291 291 291 292 292 292 292
308 307 307 307 307 307 306 306 306 305 304 303 303 303 302 302 303 303 303 303 303 303 303 303 303 303 302 302 301 301 301 301 302 302 302 302 302 302 302 302 302 302 302 301 300 300 300 300 300 299 298 297 295 293 291 290 289 288 288 288 288 288 289 289 289 289 290 290 290 290 291 291 291 291 291 291 291 291 291 291 291 291 291 291 291 292
307 307 307 307 307 306 306 306 305 304 303 303 302 302 302 302 302 302 302 302 302 303 303 303 303 303 303 302 302 301 301 302 302 302 302 302 302 302 302 302 302 302 302 301 301 300 300 300 300 299 298 296 294 292 290 289 289 288 288 288 288 289 289 289 289 289 290 290 290 290 291 291 291 291 291 291 291 291 291 291 291 291 291 291 291 291
307 307 307 306 306 306 306 305 305 304 303 302 302 302 302 302 302 302 302 303 303 303 303 303 303 303 303 303 303 303 303 303 303 302 302 302 302 302 302 302 302 302 302 301 301 300 300 300 300 298 297 295 293 292 290 289 288 288 288 288 288 289 289 289 289 290 290 290 290 291 291 291 291 291 291 291 291 291 291 291 291 291 291 291 291 291
306 306 306 306 306 305 305 305 304 303 303 303 302 302 302 302 302 303 303 303 303 303 303 303 303 303 303 303 303 303 304 303 303 303 302 302 302 302 302 302 302 302 301 301 300 300 299 300 299 298 296 294 293 291 290 289 288 288 288 288 289 289 289 289 289 290 290 290 290 291 291 291 291 291 291 291 291 291 291 291 291 291 291 291 292 292
306 306 306 306 305 305 305 304 304 304 303 303 303 303 303 303 303 303 303 303 303 303 303 303 303 304 303 303 303 303 303 303 302 302 302 302 302 302 302 302 302 301 301 301 300 299 299 299 298 297 295 293 292 290 289 289 288 288 288 288 289 289 289 289 290 290 290 290 291 291 291 291 291 291 291 291 291 291 291 291 291 292 292 292 292 292
306 305 305 305 305 305 305 304 304 304 303 303 303 303 303 303 303 303 303 303 303 303 303 303 303 304 303 303 303 303 303 302 302 302 302 302 302 302 302 302 302 302 301 301 300 300 300 299 297 296 294 292 291 290 289 288 288 288 288 288 289 289 289 289 290 290 290 290 291 291 291 291 291 291 291 291 291 291 291 291 292 292 292 292 292 292
306 305 305 305 305 305 305 304 304 304 304 303 303 303 303 303 303 303 303 303 303 303 303 303 303 303 303 303 303 303 303 302 301 301 301 301 301 301 301 301 301 301 301 301 300 300 300 299 297 295 293 292 290 289 289 288 288 288 288 288 289 289 289 289 289 290 290 290 290 291 291 291 291 291 291 291 291 291 291 291 292 292 292 292 292 292
305 305 305 305 305 305 304 304 304 304 304 304 303 303 303 303 303 303 303 302 302 302 302 302 302 302 302 302 302 302 301 300 300 300 300 300 300 300 301 301 301 301 301 301 300 300 299 298 296 294 293 291 290 289 289 288 288 288 288 289 289 289 289 289 290 290 290 290 290 290 290 291 291 291 291 291 291 291 291 291 291 292 292 292 292 292
305 305 305 305 305 304 304 304 304 304 304 304 303 303 303 303 303 303 302 302 302 302 302 302 302 302 302 302 302 301 300 299 299 299 300 300 300 300 300 300 300 301 301 300 300 299 299 297 296 294 292 291 290 289 289 289 289 289 289 289 289 289 289 289 290 290 290 290 290 290 290 290 291 291 291 291 291 291 291 291 292 292 292 292 292 292
305 305 305 305 304 304 304 304 304 304 303 303 303 303 303 303 302 302 302 302 302 302 302 302 302 302 301 301 301 301 300 300 300 300 300 300 300 300 300 300 300 300 300 299 299 298 297 296 295 293 292 290 289 289 288 288 289 289 289 289 289 289 289 290 290 290 290 290 290 290 290 290 291 291 291 291 291 291 291 291 291 291 291 291 291 291
305 305 305 304 304 304 304 304 303 303 303 303 302 302 302 302 302 302 302 301 301 301 301 301 301 301 301 301 300 300 300 300 300 300 300 300 299 299 299 299 299 299 299 298 297 297 296 295 294 292 291 290 289 289 289 289 289 289 289 289 289 289 290 290 290 290 290 290 290 290 290 290 290 291 291 291 291 291 291 291 291 291 291 291 291 291
305 305 304 304 304 303 303 303 303 303 302 302 301 301 301 301 301 301 301 301 301 300 300 300 300 300 300 300 300 300 300 300 299 299 299 298 298 297 298 298 298 298 297 297 296 296 295 294 293 291 290 289 288 288 289 289 289 289 289 289 289 290 290 290 290 290 290 290 290 290 290 290 290 290 291 291 291 291 291 291 291 291 291 291 291 291
304 304 304 304 303 303 303 303 302 302 301 301 300 300 300 300 300 299 299 299 299 299 299 299 299 299 299 299 299 299 299 298 298 297 297 296 295 295 295 296 296 296 296 296 295 294 294 293 292 290 289 288 288 288 288 288 289 289 289 289 289 289 289 289 290 290 290 290 290 290 290 290 290 290 290 290 291 291 291 291 291 291 291 291 291 291
304 304 304 303 303 303 303 302 302 301 301 300 299 299 299 298 298 297 297 297 297 297 297 297 298 298 298 298 298 298 298 297 297 296 295 294 294 293 293 293 294 294 295 294 294 293 293 292 291 290 288 288 287 288 288 288 288 289 289 289 289 289 289 289 290 290 290 290 290 290 290 290 290 290 290 290 290 291 291 291 291 291 291 291 291 291
304 304 303 303 303 302 302 302 301 301 300 300 299 298 298 297 296 295 295 294 294 294 294 295 296 296 297 297 297 296 296 296 295 295 294 293 292 292 292 292 292 292 293 293 293 292 291 291 290 289 288 288 287 287 288 288 288 289 289 289 289 289 289 289 290 290 290 290 290 290 290 290 290 290 290 290 290 290 290 290 291 291 291 291 291 291
303 303 303 303 302 302 302 301 301 300 300 299 298 297 297 296 295 294 293 292 292 292 292 293 294 294 295 295 295 295 295 295 294 294 293 292 291 291 291 291 291 291 291 291 291 291 290 290 289 289 288 288 288 288 288 288 288 289 289 289 289 289 289 289 289 289 290 290 290 290 290 290 290 290 290 290 290 290 290 290 290 290 290 290 290 290
303 303 303 302 302 302 302 301 300 300 299 298 297 296 295 294 293 292 292 291 291 291 291 292 292 293 294 294 294 294 294 294 293 293 292 291 291 290 290 290 289 289 289 289 289 289 289 289 288 288 288 288 288 288 288 288 288 288 289 289 289 289 289 289 289 289 289 289 289 289 289 289 290 290 290 290 290 290 290 290 290 290 290 290 290 290
303 302 302 302 302 302 301 301 300 299 298 297 295 294 293 292 292 291 291 290 290 290 291 291 291 292 292 293 293 293 293 293 292 292 291 291 290 290 290 289 289 289 288 288 288 288 288 288 288 287 288 288 288 288 288 288 288 288 288 289 289 289 289 289 289 289 289 289 289 289 289 289 289 289 289 289 289 290 290 290 290 290 290 290 290 290
302 302 302 302 302 301 301 300 299 298 297 295 294 293 292 291 290 290 290 290 290 290 290 291 291 291 292 292 292 292 292 292 291 291 291 290 290 289 289 289 289 288 288 288 288 288 288 288 287 287 287 288 288 288 288 288 288 288 288 288 289 289 289 289 289 289 289 289 289 289 289 289 289 289 289 289 289 289 289 289 290 290 290 290 290 290
302 302 302 302 301 301 300 299 298 297 296 294 293 291 290 290 290 289 289 289 289 290 290 291 291 291 291 291 291 291 291 291 291 290 290 290 289 289 289 289 288 288 288 287 287 287 287 288 288 288 288 288 288 288 288 288 288 288 288 288 288 289 288 289 289 289 289 289 289 289 289 289 289 289 289 289 289 289 289 289 289 289 289 290 290 290
302 302 302 301 301 300 300 298 297 296 295 293 292 291 290 289 289 289 289 289 289 290 290 290 290 290 290 290 290 290 290 290 290 289 289 289 289 289 289 288 288 288 287 287 287 287 287 287 288 288 288 288 288 288 288 288 288 288 288 288 289 289 288 288 288 289 289 289 289 289 289 289 289 289 289 289 289 289 289 289 289 289 289 289 289 289
301 301 301 301 300 300 299 297 296 294 293 292 291 290 289 289 288 288 289 289 289 289 290 290 290 290 290 290 290 290 289 289 289 289 289 289 288 288 288 288 288 288 287 287 287 287 287 287 287 288 288 288 288 288 288 288 288 288 288 289 289 289 289 289 289 289 289 289 289 289 289 289 289 289 289 289 289 289 289 289 289 289 289 289 289 289
Wind_Speed
20 18 18 18 18 18 18 18 18 18 19 19 19 18 17 17 17 17 16 16 16 15 14 13 13 14 15 15 16 16 16 16 15 14 13 12 11 11 12 12 13 13 13 13 13 13 13 14 14 14 15 15 15 15 15 16 17 18 19 21 22 23 23 24 24 24 23 23 23 24 25 24 23 22 21 20 19 17 16 16 15 15 14 13 12 11
20 19 19 20 20 20 20 20 20 20 20 20 20 19 18 18 18 18 17 17 16 16 14 13 13 14 15 15 16 16 16 15 15 14 13 12 12 11 11 12 12 12 13 13 13 13 13 13 13 14 14 14 14 14 15 15 16 17 19 20 20 21 20 20 19 18 19 20 22 23 22 21 20 19 18 18 17 16 16 15 14 14 13 12 11 10
20 20 20 21 21 21 22 22 21 21 21 21 20 20 19 19 19 19 18 18 17 15 14 13 13 14 14 15 15 15 15 15 15 15 14 13 12 12 11 11 11 12 12 12 13 13 13 13 13 13 13 13 13 13 14 15 15 17 17 18 19 19 19 19 18 18 18 18 19 19 17 16 16 16 16 16 15 15 14 14 13 12 12 11 9 8
21 21 21 21 22 22 23 23 23 22 22 21 21 21 20 20 19 19 18 17 16 15 14 13 13 14 14 15 15 15 15 16 16 16 15 14 13 12 12 11 11 11 11 12 12 12 13 13 13 13 13 13 13 13 13 14 15 15 16 17 17 17 17 17 17 17 17 17 16 15 14 14 14 15 15 14 14 13 13 12 12 11 10 9 8 6
23 23 22 22 23 24 24 23 23 23 23 23 22 22 21 20 19 19 18 17 16 15 14 14 13 13 14 14 15 15 15 16 17 17 16 15 14 13 12 11 11 11 11 11 12 12 12 12 12 12 12 12 12 12 13 13 14 14 15 15 15 15 15 15 15 15 15 14 14 14 14 14 14 15 14 14 13 12 11 10 10 10 9 7 6 5
24 24 23 23 24 25 25 24 24 24 24 23 23 22 22 21 20 19 18 17 17 16 15 13 13 13 14 14 15 15 16 16 17 17 17 16 15 14 13 12 11 11 11 11 11 12 12 12 12 12 12 12 12 12 12 13 13 14 14 14 14 14 14 14 14 14 14 14 14 15 15 15 15 15 15 14 13 11 10 9 9 8 7 6 5 5
25 24 23 24 25 25 26 26 25 25 25 24 24 23 22 21 20 19 18 17 17 16 15 14 13 13 14 15 15 16 16 17 17 17 17 16 15 14 14 13 11 11 10 11 11 12 12 12 12 12 11 11 12 12 12 12 13 13 13 14 14 14 14 14 14 15 15 15 16 16 16 16 16 15 14 13 12 10 9 8 7 7 6 6 5 5
24 24 24 25 25 26 26 26 26 25 26 25 24 23 22 21 20 19 18 17 17 17 16 14 14 14 15 16 17 17 18 18 18 18 18 17 16 15 14 13 12 11 11 11 11 12 12 12 12 12 11 11 11 12 12 12 12 13 13 14 14 14 14 15 15 16 16 16 17 17 17 16 16 15 14 12 11 9 8 7 7 6 6 6 5 5
22 23 24 25 26 26 26 26 26 25 25 25 24 23 22 21 20 19 18 18 18 18 17 16 16 16 16 17 18 19 19 19 19 18 18 18 17 16 15 14 13 12 11 11 12 12 12 12 12 11 11 11 12 12 12 12 12 13 13 14 14 15 15 16 16 16 17 17 17 17 17 16 15 14 13 11 10 8 7 7 6 6 6 6 6 6
21 22 24 25 25 25 26 26 26 25 24 24 24 23 21 20 20 20 20 19 19 19 18 17 18 18 19 19 20 20 20 20 20 19 19 19 18 17 16 15 13 12 11 12 12 12 12 12 11 11 11 11 12 12 12 12 13 13 14 14 15 16 16 17 17 17 17 17 17 17 16 15 14 13 12 10 9 8 7 7 7 7 7 7 7 7
22 23 24 25 25 24 25 26 26 25 24 23 22 22 22 21 21 21 21 21 20 20 20 20 20 20 21 21 22 22 22 22 21 21 20 19 19 18 17 15 14 12 12 12 12 13 12 12 12 11 11 12 12 12 12 13 13 13 14 15 15 16 16 17 17 17 17 17 16 16 15 14 13 12 11 10 9 8 8 7 7 7 8 8 8 8
23 24 25 25 25 25 25 25 25 25 24 23 23 22 22 23 23 22 22 21 21 21 21 21 21 22 22 23 23 24 24 24 23 23 22 21 19 18 16 15 13 13 12 12 13 13 13 12 12 12 12 12 12 12 13 13 13 14 14 15 15 16 16 16 16 15 15 15 15 14 14 13 12 11 10 9 9 8 8 8 8 8 8 9 9 9
24 25 25 25 25 25 26 26 26 25 25 25 25 25 25 23 22 22 21 21 21 21 22 22 22 22 23 24 24 25 25 25 25 24 23 22 20 18 16 14 13 12 12 13 13 13 13 12 12 12 12 12 13 13 13 13 14 14 14 14 15 15 14 14 14 14 13 14 13 13 13 12 11 10 10 9 9 9 9 9 9 9 9 10 11 11
25 25 25 26 26 26 26 26 26 26 26 25 25 25 23 22 21 20 20 21 21 22 22 22 22 23 24 25 25 26 26 26 26 25 25 24 22 19 16 15 14 13 13 13 13 13 13 13 12 12 13 13 13 13 13 13 13 13 13 13 13 13 13 12 12 12 12 12 12 12 12 11 11 10 9 9 9 9 9 10 10 10 10 11 12 13
25 25 26 26 26 26 26 26 26 26 25 25 24 23 22 21 21 21 21 22 22 23 23 23 24 25 25 26 26 27 27 27 27 26 26 25 23 20 18 16 16 15 15 15 14 14 14 13 13 13 13 13 13 13 13 13 13 13 13 12 12 12 11 11 11 11 11 12 12 11 11 11 10 10 10 10 10 10 10 10 10 11 11 12 13 14
23 23 25 25 25 25 25 24 25 25 24 24 23 23 23 22 22 22 22 23 23 24 25 26 27 27 28 28 28 28 28 28 27 27 26 25 24 22 20 18 18 17 17 16 16 15 14 14 14 13 13 13 13 13 13 13 13 12 12 11 11 11 11 11 11 11 11 11 11 11 11 11 10 10 10 10 10 10 11 11 11 11 12 13 14 15
23 23 24 25 24 24 24 24 24 24 24 24 24 24 23 23 22 22 23 23 24 25 27 28 29 31 31 31 30 30 29 29 28 27 26 26 25 23 21 20 19 19 18 17 17 16 15 14 14 14 14 14 13 13 13 13 12 12 11 11 10 10 10 10 10 11 11 11 11 11 11 10 10 10 10 11 11 11 11 11 11 12 12 13 14 15
24 25 25 25 25 25 25 25 25 25 25 25 25 24 23 22 22 22 22 23 25 26 28 29 30 32 33 34 33 32 30 29 28 28 27 26 26 24 22 20 20 20 19 18 18 17 16 15 15 15 14 14 14 13 13 12 12 11 11 10 10 10 10 10 10 11 11 11 11 11 11 11 10 11 11 11 11 11 12 12 12 12 12 13 14 15
26 26 26 26 26 25 25 25 26 26 26 26 26 24 23 22 22 22 23 24 25 26 28 29 31 32 33 34 33 31 30 29 28 27 27 27 26 24 22 21 20 20 20 19 18 17 16 15 15 15 15 15 14 13 13 12 12 11 11 10 10 10 10 10 10 10 11 11 11 11 11 11 11 11 11 11 12 12 12 12 12 12 12 13 14 14
27 27 26 26 26 26 26 26 26 26 26 25 24 23 22 22 22 23 24 24 25 26 27 28 30 31 32 32 32 31 30 28 28 27 27 27 26 25 22 21 21 20 20 19 18 17 16 16 16 15 15 15 14 14 13 12 12 11 10 10 10 10 10 10 10 10 11 11 11 11 11 11 11 11 12 12 12 12 13 13 13 12 13 13 13 14
26 26 26 26 26 26 26 25 24 24 23 22 21 21 21 22 22 23 24 24 25 26 27 28 29 30 31 31 31 31 30 29 28 28 27 26 26 25 23 21 21 20 20 20 19 18 17 16 16 16 15 15 14 14 13 12 11 11 10 10 10 10 10 10 11 11 11 11 11 11 11 11 11 12 12 12 13 13 13 13 13 13 13 13 13 13
25 25 25 25 25 25 24 23 21 21 20 20 21 21 21 21 21 22 23 24 25 26 27 27 28 28 29 29 29 29 29 28 28 28 27 27 27 25 24 22 21 20 20 20 19 18 17 17 16 16 16 15 15 14 13 12 11 11 10 10 10 10 10 11 11 11 11 11 11 11 11 12 12 12 12 13 13 13 13 13 13 13 13 13 12 12
25 24 24 24 24 23 22 21 20 20 20 20 20 20 19 18 18 18 19 21 22 24 26 26 26 27 27 27 27 28 28 27 27 27 27 28 28 26 24 22 21 21 20 20 19 19 18 18 17 17 16 16 15 14 13 12 11 11 11 10 10 11 11 11 11 11 12 12 12 12 12 12 12 13 13 13 13 13 13 13 13 13 13 12 12 12
25 24 24 23 23 22 22 21 21 20 21 20 19 18 17 16 15 15 16 17 19 21 23 24 25 25 26 27 27 28 28 27 27 27 28 29 28 27 24 23 22 21 20 20 20 19 19 18 18 17 17 16 15 14 13 12 12 11 11 11 11 11 11 11 12 12 12 12 12 12 12 13 13 13 13 13 13 13 13 13 13 13 13 12 12 12
24 24 23 22 21 21 21 21 21 21 20 19 18 17 17 16 15 15 16 17 19 20 21 23 24 26 26 27 27 28 28 27 27 27 28 28 28 26 25 23 22 21 21 20 20 20 19 19 18 18 17 16 15 14 14 13 12 11 11 11 11 11 12 12 12 12 12 13 13 13 13 13 13 13 13 13 13 13 13 13 13 13 13 12 12 11
23 22 21 21 20 20 20 21 21 21 20 19 18 17 17 17 17 17 18 20 20 21 21 23 24 26 27 27 27 28 28 27 27 27 27 28 27 26 24 23 22 21 21 20 20 20 20 19 19 18 17 16 16 15 14 13 12 12 11 12 12 12 12 12 13 13 13 13 13 13 13 13 13 13 13 13 13 13 13 13 13 13 12 12 11 11
22 21 20 20 20 20 20 20 20 20 20 19 18 18 18 18 18 19 21 22 21 21 21 23 25 26 27 27 28 28 27 27 26 27 27 26 25 25 24 22 21 21 21 21 21 20 20 20 19 18 17 17 16 15 14 13 13 12 12 12 12 13 13 13 13 14 14 14 14 14 14 14 14 14 13 13 13 13 13 13 12 12 12 12 11 11
21 21 20 20 20 20 20 20 20 20 19 18 18 17 18 18 20 21 22 21 20 20 21 23 24 26 27 27 27 27 26 26 26 26 26 25 25 24 23 22 21 21 21 21 21 21 21 20 19 19 18 17 16 15 14 14 13 13 13 13 13 13 13 14 14 14 14 14 14 14 14 14 14 14 14 13 13 13 13 12 12 12 11 11 11 10
21 20 20 20 20 20 20 20 19 19 18 17 17 17 17 19 20 20 20 19 19 19 21 22 23 24 25 25 25 25 26 27 27 26 25 25 25 24 23 22 21 21 22 22 22 22 21 21 20 19 19 18 16 15 15 14 14 13 13 13 14 14 14 14 15 15 15 15 15 15 15 14 14 14 14 13 13 13 12 12 12 11 11 11 10 10
21 21 20 20 20 20 19 19 18 17 17 16 16 17 17 18 19 19 18 18 19 19 20 21 22 22 22 23 24 26 27 28 27 26 25 25 25 25 24 23 22 22 22 22 22 22 22 21 20 20 19 18 17 16 15 15 14 14 14 14 14 15 15 15 15 15 15 15 15 15 15 15 15 14 14 14 13 13 13 12 12 11 11 10 10 10
22 21 21 20 19 19 18 18 17 17 16 17 17 18 18 18 19 19 19 19 19 19 20 21 21 21 21 22 25 27 29 28 27 26 26 26 26 25 24 23 23 23 22 22 23 23 23 21 21 20 19 18 17 16 16 15 15 14 15 15 15 15 16 16 16 16 16 16 16 15 15 15 15 15 14 14 14 13 13 12 12 12 11 11 10 10
21 21 20 19 19 18 18 17 17 17 17 18 19 19 19 19 19 19 19 19 19 19 20 21 21 21 21 21 23 25 25 25 25 25 25 26 26 25 24 23 23 23 22 22 22 22 21 21 20 20 19 18 18 17 16 16 15 15 15 15 16 16 16 16 17 17 17 16 16 16 16 15 15 15 15 14 14 14 13 13 12 12 12 11 11 10
21 21 20 19 18 18 18 17 18 18 19 19 20 20 19 19 19 19 18 18 19 19 20 21 21 21 20 20 20 20 20 21 22 23 24 25 26 25 24 24 23 23 22 22 22 22 21 21 20 19 19 18 18 17 17 16 16 16 16 16 16 16 17 17 17 17 17 17 17 17 16 16 16 15 15 14 14 14 13 13 13 12 12 12 11 11
22 21 20 19 19 18 18 18 18 19 19 19 19 19 19 18 18 18 18 18 18 19 20 20 20 20 20 20 20 19 19 19 20 21 22 24 24 24 24 24 23 23 23 23 23 23 22 21 20 18 18 18 18 18 17 17 17 16 16 16 17 17 17 17 17 17 17 17 17 17 17 16 16 15 15 15 14 14 13 13 13 12 12 12 12 11
22 21 20 20 19 19 19 19 19 19 19 18 18 18 18 18 18 18 18 18 18 18 19 19 18 18 19 19 19 18 18 17 18 20 21 23 23 23 24 24 24 23 23 23 23 23 23 21 20 18 18 18 18 18 18 18 17 17 17 17 17 18 18 18 18 18 18 18 18 17 17 16 16 15 15 14 14 14 13 13 13 12 12 12 12 12
22 22 21 20 20 20 20 19 19 19 18 18 17 17 17 17 17 17 17 18 18 18 18 18 17 17 17 17 17 16 15 15 16 18 20 21 22 22 23 23 23 23 23 23 23 23 22 21 20 18 18 18 19 19 19 19 18 18 18 18 18 19 19 19 18 18 18 18 18 18 17 17 16 15 15 14 14 14 13 13 13 12 12 12 12 11
23 22 21 21 21 20 20 19 19 18 17 17 17 17 17 17 17 17 17 18 18 18 18 18 17 17 17 16 16 15 14 14 15 17 19 20 20 21 22 22 22 21 22 22 22 22 21 20 20 19 18 19 19 20 20 20 19 19 19 19 19 20 20 20 20 19 19 19 18 18 17 17 16 16 15 15 14 14 13 13 13 12 12 12 12 11
23 22 22 21 21 20 19 19 18 17 17 17 17 17 17 17 18 18 18 18 18 18 17 17 17 17 17 16 16 16 16 16 16 17 18 19 19 20 20 21 20 20 20 20 20 20 20 20 20 20 19 19 19 19 19 19 19 20 20 20 20 20 20 20 20 20 20 19 19 18 18 17 16 16 15 15 14 14 13 13 13 13 12 12 12 12
24 23 23 22 21 20 19 18 18 17 17 17 17 17 17 18 18 18 18 18 18 18 18 17 17 16 16 16 17 17 18 18 18 18 18 19 19 19 20 20 20 20 20 19 19 20 20 20 19 19 18 18 19 19 19 19 19 19 19 20 20 21 21 21 21 20 20 20 19 18 18 17 16 16 15 15 14 14 13 13 13 13 12 12 12 12
24 23 22 22 20 20 19 18 17 17 17 17 17 18 18 18 18 18 19 19 18 18 18 17 17 17 17 17 17 18 18 18 18 18 18 19 19 19 19 19 19 19 20 20 20 20 20 19 18 17 16 16 17 18 19 19 19 19 19 20 21 21 21 21 20 20 20 19 19 18 17 17 16 15 15 15 14 14 14 13 13 13 13 13 12 12
24 23 22 21 20 19 19 18 17 17 17 18 18 18 19 19 19 19 19 19 19 19 18 18 18 17 17 18 18 18 18 18 18 18 18 18 18 19 19 19 19 20 20 21 21 21 21 20 18 17 16 15 15 16 18 18 19 19 20 20 19 19 19 20 20 20 19 19 18 18 17 17 16 15 15 15 14 14 14 14 14 14 13 13 13 13
24 23 22 21 20 20 19 19 18 18 19 19 19 19 19 19 19 19 19 19 19 19 19 19 18 18 18 18 19 19 19 19 18 18 17 17 18 18 18 19 20 20 21 21 22 21 21 20 19 18 17 16 16 16 17 18 19 19 19 19 18 18 19 20 20 20 19 19 18 18 17 17 16 16 15 15 15 15 15 14 14 14 14 14 13 13
23 22 21 21 20 20 19 19 19 20 20 20 20 20 19 19 19 19 19 19 19 19 19 19 19 19 19 20 20 20 20 19 19 18 18 18 18 18 18 19 20 21 22 22 22 22 21 20 19 19 18 18 17 17 17 18 19 20 19 19 19 19 20 20 20 20 19 19 18 17 17 17 16 16 16 16 15 15 15 15 14 14 14 14 14 13
23 22 22 21 21 20 20 20 20 20 20 20 20 20 20 20 20 20 20 20 19 19 19 19 19 20 20 20 21 20 20 20 20 19 19 18 18 18 18 19 20 21 22 23 23 22 21 20 20 19 19 19 19 19 19 19 20 20 20 20 20 20 20 19 19 19 18 18 18 17 17 17 17 17 16 16 16 16 15 15 15 15 14 14 14 14
23 23 22 22 22 21 21 21 21 20 20 20 20 20 20 20 20 20 20 20 20 20 19 19 20 20 21 21 21 21 21 21 20 20 20 19 19 19 19 19 20 21 22 22 22 22 21 20 20 19 19 19 20 20 20 20 20 20 20 20 20 20 19 18 18 18 18 18 17 17 17 17 17 17 17 17 16 16 16 15 15 15 15 15 14 14
24 24 23 23 22 22 21 21 21 20 20 20 20 21 21 21 21 21 21 20 20 20 20 20 20 21 21 22 22 22 22 21 21 21 20 20 20 20 20 20 21 21 22 22 21 21 20 19 19 19 19 19 20 20 20 20 20 20 20 20 20 19 19 19 18 18 18 18 17 17 17 17 18 17 17 17 17 16 16 16 16 16 15 15 15 15
25 25 24 23 23 22 22 21 21 21 21 21 21 21 21 21 21 21 21 21 21 21 20 20 21 21 21 21 22 22 22 22 21 21 21 21 21 21 21 21 22 22 22 22 22 21 21 20 19 19 19 19 19 20 21 21 20 20 20 20 20 19 19 19 18 18 18 18 18 18 18 18 18 17 17 17 17 16 16 16 16 16 16 16 15 15
26 25 24 23 23 22 22 22 22 22 21 21 21 21 22 22 22 22 22 22 22 22 21 22 22 22 21 21 21 21 21 21 21 21 21 21 22 22 22 22 23 23 23 23 22 22 22 21 20 20 19 19 19 19 20 20 20 20 20 20 19 19 19 18 18 18 18 18 18 18 18 18 17 17 17 17 17 17 17 16 16 16 16 16 15 15
26 25 24 24 23 23 23 22 22 22 22 22 22 22 22 22 22 22 22 22 22 22 23 23 23 22 22 22 21 21 21 21 21 21 21 21 22 22 23 23 23 24 23 23 23 22 22 21 21 20 20 20 19 18 19 20 20 20 20 20 19 19 19 18 18 18 17 17 17 17 17 17 17 17 17 17 17 17 17 16 16 16 16 16 15 15
26 25 25 24 23 23 22 22 22 22 22 22 22 22 22 22 23 23 23 23 23 23 23 23 23 22 22 22 22 22 22 22 22 22 22 22 22 23 23 24 24 24 24 23 23 22 21 21 20 20 20 21 20 20 20 20 20 21 20 20 20 19 19 18 18 18 17 17 17 17 17 17 17 17 17 17 17 17 17 16 16 16 16 16 15 15
27 26 25 24 24 23 22 22 22 22 22 22 22 22 23 23 23 24 24 24 24 24 24 23 23 23 22 22 22 23 23 23 23 23 23 23 23 23 23 24 24 25 25 24 24 23 22 22 21 21 21 21 21 21 21 21 21 21 21 20 20 19 19 19 18 18 17 17 17 17 17 16 17 17 17 17 16 16 16 16 16 16 16 16 16 15
Wind_Direction
195 202 209 216 223 228 231 234 235 235 234 235 235 235 236 238 241 243 244 245 247 248 245 237 232 235 241 246 251 256 260 263 265 266 265 265 265 263 260 254 249 244 241 238 234 229 226 223 221 222 223 226 229 232 235 238 241 243 245 247 248 248 249 250 252 253 255 256 256 259 263 268 273 278 282 285 289 293 295 296 295 294 293 292 290 288
193 202 212 219 225 229 232 233 234 234 232 233 234 235 236 238 242 243 244 245 246 246 242 234 231 235 242 248 254 258 261 264 264 265 265 266 267 266 262 254 247 241 238 235 231 228 225 224 224 226 228 231 235 238 241 244 246 247 248 249 250 249 249 249 249 249 250 253 256 261 265 269 272 275 277 280 284 287 289 289 288 287 285 283 281 278
194 204 214 221 225 228 230 232 233 233 232 232 234 236 236 238 241 244 246 246 246 245 240 234 232 235 242 248 252 256 259 260 261 262 263 264 266 265 262 253 244 238 235 233 230 228 227 226 227 230 233 237 241 244 247 249 250 250 251 251 251 251 251 250 249 248 250 255 260 265 268 270 271 272 275 277 280 283 284 283 281 279 277 274 271 268
198 206 215 221 225 228 230 232 232 232 232 232 234 236 236 237 239 243 247 247 246 243 238 233 233 236 242 245 248 251 254 256 258 259 260 262 264 264 261 252 243 236 233 232 231 230 230 230 231 234 238 242 246 249 252 253 253 253 252 252 251 251 251 251 251 252 254 258 262 266 267 268 270 272 275 277 279 280 279 276 273 270 267 264 260 255
201 208 216 222 226 229 231 232 233 233 233 234 235 236 236 236 238 241 244 243 241 238 235 232 232 236 241 242 244 247 250 253 255 257 258 260 261 262 259 252 243 236 233 233 233 233 234 235 237 239 243 247 251 254 255 255 255 254 252 251 250 249 249 249 250 252 254 258 261 264 266 269 272 274 277 278 278 277 273 268 263 260 256 251 245 238
202 208 215 222 228 231 233 234 234 235 235 235 236 236 236 237 238 239 240 239 237 235 234 231 231 235 239 239 240 243 247 251 253 255 256 257 258 259 257 251 244 238 235 236 236 237 238 239 241 244 248 252 255 257 257 256 255 253 251 249 248 247 247 247 249 251 254 257 261 264 267 270 273 276 277 277 276 272 266 258 251 247 243 237 229 223
201 209 215 222 227 231 234 235 236 237 238 238 237 237 238 238 237 237 237 237 237 236 235 231 231 234 237 236 236 239 244 248 251 253 254 255 255 256 254 251 246 241 239 239 240 241 242 243 246 249 253 256 259 259 258 256 253 251 249 247 247 246 247 248 250 253 256 260 263 266 269 271 273 274 274 273 271 265 256 246 238 233 229 221 215 210
202 209 216 222 226 230 233 235 237 239 240 240 239 238 237 238 236 234 233 234 236 237 236 231 229 231 235 235 235 237 241 246 249 252 253 254 254 253 252 250 247 244 242 243 243 244 245 246 249 253 257 260 261 261 258 255 252 249 247 246 246 247 248 250 253 256 259 261 264 266 268 269 269 269 269 266 262 256 245 233 224 219 213 206 201 199
205 211 217 222 226 230 233 235 237 239 240 241 242 240 237 235 232 230 229 228 231 234 235 232 229 229 232 234 235 236 240 244 248 251 253 254 254 253 251 250 248 247 246 246 246 246 246 248 251 255 259 262 263 261 259 255 251 248 247 247 247 249 251 253 255 257 259 261 263 264 265 265 264 263 261 257 251 244 233 222 214 208 202 195 192 191
208 215 220 224 227 231 236 238 238 238 239 240 241 241 240 235 231 228 225 224 226 229 232 231 230 229 230 233 235 236 238 242 246 249 251 253 253 252 251 250 249 249 249 249 248 247 247 249 252 256 259 261 262 260 257 254 250 248 247 248 249 251 253 254 256 257 258 259 260 260 260 259 258 255 251 245 239 231 221 212 206 200 196 191 188 184
212 217 222 227 229 232 236 239 240 240 239 238 238 238 239 237 234 230 227 226 225 225 226 227 228 229 230 232 235 237 238 240 242 245 248 250 251 251 250 250 250 251 251 250 249 248 248 249 252 255 258 259 259 257 254 252 249 248 248 249 251 252 254 255 255 255 255 255 255 255 254 252 250 246 240 233 226 219 211 204 200 196 192 188 182 175
216 219 223 228 231 234 236 239 240 240 239 236 233 231 231 234 234 234 233 231 229 227 225 226 227 228 230 233 236 238 239 240 241 243 246 249 250 251 250 249 249 250 250 250 249 249 249 250 253 255 257 258 257 255 252 250 248 248 249 251 252 253 254 254 253 251 250 249 249 247 245 243 239 235 228 221 215 209 203 199 195 192 189 184 176 166
220 222 226 230 233 236 237 238 238 238 237 235 233 230 229 231 232 233 234 235 235 234 232 230 230 230 232 234 236 238 240 240 242 243 245 248 250 252 251 249 248 248 249 249 249 249 250 252 254 256 257 257 256 254 251 249 249 250 251 252 253 252 251 250 248 246 244 242 241 239 237 233 229 223 217 211 206 202 198 195 192 190 186 181 172 160
221 224 228 232 234 236 238 239 239 238 238 238 237 237 236 234 233 232 231 232 234 235 235 234 233 234 234 235 236 238 239 240 241 243 244 246 248 250 249 247 247 248 249 249 249 249 251 252 254 256 257 257 255 253 252 251 251 253 254 254 252 250 247 244 241 239 236 234 233 231 228 225 220 214 209 204 200 197 195 193 191 188 184 179 171 159
221 225 230 233 235 237 238 240 241 242 242 242 241 239 237 234 232 230 227 226 228 229 230 231 233 234 235 235 236 237 238 239 240 241 242 244 246 246 245 243 244 245 247 248 248 249 251 253 255 257 257 256 254 252 252 252 253 255 255 253 250 246 242 238 234 232 229 227 225 223 220 217 212 207 202 199 197 195 193 192 190 187 184 179 173 164
225 229 233 236 239 240 241 243 244 245 246 245 243 240 236 232 230 228 226 225 225 225 225 225 226 228 231 233 235 236 236 237 238 240 241 243 244 244 243 241 242 244 245 247 248 250 252 254 256 257 257 255 253 252 251 253 254 255 254 251 246 240 235 232 228 226 224 222 220 218 215 211 207 202 198 196 195 194 193 191 189 187 184 180 176 170
231 235 239 241 243 244 244 245 246 247 247 246 245 244 241 237 233 229 226 225 225 225 224 224 222 222 224 227 231 233 234 235 236 239 240 242 243 243 242 241 242 244 245 246 248 250 252 254 256 256 256 254 252 250 250 252 254 254 252 247 241 235 231 227 224 221 220 218 216 213 211 207 203 199 196 194 193 192 191 190 188 186 183 181 179 175
236 239 242 244 244 245 245 245 246 246 246 246 246 245 243 239 235 232 228 226 226 226 226 226 225 224 223 223 226 230 233 232 234 237 239 241 242 243 242 240 241 243 244 246 247 249 251 253 255 255 255 253 251 249 249 251 252 252 248 242 236 231 226 223 220 218 216 214 212 210 207 204 200 196 194 192 191 190 190 189 187 185 183 182 181 180
240 241 243 244 244 244 244 245 245 245 246 246 245 243 239 236 233 231 229 228 227 227 228 228 228 228 228 228 229 232 234 232 233 236 239 241 242 242 242 240 240 242 243 245 247 249 250 252 253 254 253 252 250 248 248 250 250 248 244 238 232 227 223 220 217 215 213 211 209 207 204 201 198 195 192 191 189 188 188 187 186 184 182 181 182 183
244 245 245 245 244 244 244 245 245 245 246 247 246 244 239 234 229 227 227 227 227 227 228 230 231 231 232 233 234 235 236 235 234 235 239 241 243 244 243 241 240 241 243 244 246 248 249 251 251 252 251 250 248 247 247 248 248 245 240 234 228 223 220 217 214 212 210 208 206 204 201 198 195 193 190 188 187 186 185 185 183 182 181 180 182 184
246 247 247 246 245 244 245 246 246 246 246 246 244 242 239 234 229 226 226 226 226 227 228 230 232 233 234 236 237 237 238 236 235 235 239 242 244 244 243 242 241 241 243 244 245 247 248 250 250 250 249 247 246 245 246 247 245 242 236 230 225 220 216 213 211 209 207 206 203 201 198 196 193 191 188 186 185 183 183 182 181 180 180 179 180 183
245 246 246 245 245 245 246 247 247 246 244 243 241 240 239 235 231 228 228 227 227 228 230 231 232 234 236 238 240 240 241 239 237 238 240 241 242 242 242 241 240 241 242 244 245 246 247 249 249 249 247 245 244 243 244 244 242 238 232 226 221 217 213 210 208 206 204 203 201 198 196 194 191 188 186 184 182 181 181 180 180 179 179 179 180 181
242 243 244 243 243 243 244 244 244 243 244 244 244 245 245 244 243 240 237 235 234 234 234 235 235 236 236 238 239 239 239 238 238 239 239 240 241 241 241 240 240 240 241 243 244 245 246 247 247 247 245 243 242 241 242 242 240 235 229 223 218 213 210 207 205 203 202 200 198 196 194 191 189 186 184 182 181 180 180 180 180 180 179 179 179 180
241 241 241 240 240 241 243 244 244 245 246 246 247 248 249 249 248 247 245 242 240 239 239 239 237 236 235 235 235 235 235 234 234 234 236 238 241 241 240 240 240 240 241 242 243 244 245 245 245 244 242 240 239 240 240 240 237 231 225 220 215 210 207 204 202 201 199 198 196 194 192 189 187 185 183 181 180 180 180 180 181 181 181 181 181 182
241 240 240 239 240 242 245 247 248 249 249 248 246 244 242 240 236 233 232 233 233 233 233 233 232 232 232 231 231 231 231 230 229 230 232 235 238 239 239 238 239 239 241 241 241 242 242 243 243 242 239 238 237 238 238 237 234 228 222 217 212 208 204 202 200 198 197 196 194 192 190 188 186 184 183 181 181 181 181 182 182 183 183 184 184 184
240 240 240 240 241 243 246 248 249 249 249 247 243 239 235 231 228 226 226 226 226 226 226 227 228 229 229 229 229 228 228 227 227 227 229 232 234 236 236 235 236 237 238 238 239 239 240 240 240 238 236 235 235 235 236 235 231 225 219 214 209 205 202 200 198 197 195 193 192 190 189 187 186 184 183 182 182 182 183 183 184 185 186 186 187 187
239 239 239 239 240 242 243 245 245 246 245 243 239 234 231 228 226 225 225 225 224 222 221 223 225 226 227 227 227 227 226 225 225 225 227 229 231 233 233 232 232 233 234 235 236 236 237 237 236 234 232 232 232 233 233 231 227 221 216 211 206 203 200 198 196 195 194 192 191 190 189 187 186 185 184 184 184 185 185 186 187 188 188 189 190 190
237 236 236 236 237 238 239 240 241 241 240 237 233 230 229 229 228 226 226 225 223 221 221 222 223 224 224 225 226 226 225 225 224 224 225 227 229 231 231 230 229 229 230 231 232 233 233 233 231 230 228 228 229 230 230 228 223 218 213 208 204 201 198 197 195 194 192 191 190 190 189 188 187 186 185 186 186 187 188 189 189 190 191 191 192 193
233 233 233 233 234 234 235 235 236 235 234 231 228 227 229 232 232 231 231 229 226 223 223 224 224 225 225 225 225 225 225 224 224 223 223 224 227 228 229 227 226 226 226 227 229 230 230 229 227 226 225 225 226 226 226 224 220 215 210 206 202 199 197 196 194 193 192 191 190 190 189 189 188 187 187 187 188 189 190 191 192 192 193 194 194 195
230 229 229 230 231 231 231 231 230 229 227 226 225 227 229 233 234 235 235 232 229 227 226 226 227 226 225 224 223 223 224 223 222 221 221 222 224 226 225 224 224 224 224 225 225 227 227 226 225 223 222 222 223 223 223 220 216 212 207 204 200 198 196 195 194 193 192 191 190 190 190 189 189 188 188 189 189 190 192 192 193 193 195 196 197 197
227 226 226 227 228 228 228 226 225 223 221 221 223 226 229 231 233 234 233 232 231 230 229 229 229 228 226 223 221 222 223 221 220 219 219 221 223 225 224 223 223 223 224 224 225 225 226 225 223 222 221 221 221 221 220 217 213 209 205 202 199 197 195 194 193 192 192 191 191 191 191 190 190 189 189 189 190 191 192 192 193 194 194 196 197 199
225 225 225 225 226 226 225 223 221 219 219 220 222 225 227 229 231 232 233 233 233 232 231 231 231 230 228 227 226 226 226 223 220 219 218 220 223 225 224 224 223 223 223 224 225 226 227 226 223 222 221 220 219 219 217 214 211 207 204 200 198 196 195 194 194 193 192 192 192 192 192 191 191 190 190 190 191 191 192 192 192 193 194 195 197 198
222 222 223 223 223 223 222 221 219 219 219 221 223 225 227 229 231 233 234 234 234 234 233 232 231 230 228 228 230 232 232 228 224 221 220 221 222 223 224 224 223 223 223 222 222 223 225 226 225 223 222 221 219 217 215 212 208 205 201 199 197 195 195 195 194 193 193 193 193 193 192 192 191 191 191 191 191 192 192 192 193 193 194 195 196 197
219 219 219 220 220 220 220 220 220 220 221 222 224 225 227 229 231 233 234 235 235 235 235 234 232 230 228 226 226 228 229 227 224 222 223 223 224 224 224 223 223 222 222 221 220 220 221 222 223 223 222 220 219 216 213 210 207 203 200 197 196 195 195 195 195 194 194 194 194 194 193 193 192 192 192 192 192 193 193 193 194 194 195 196 196 197
218 218 219 219 219 220 220 219 219 220 221 222 224 225 226 228 230 232 233 233 233 233 233 234 233 232 230 227 224 224 224 222 221 221 223 224 225 226 226 225 224 223 221 220 220 220 219 220 220 221 221 219 217 214 211 208 205 201 198 196 194 194 194 195 196 196 196 196 195 195 194 194 193 193 193 193 194 194 194 195 195 196 196 197 198 198
217 217 218 219 220 220 220 220 220 220 220 221 222 223 224 226 228 229 230 231 231 230 230 231 230 230 229 228 226 224 222 221 219 220 221 223 225 226 227 227 225 224 222 221 220 220 220 220 219 219 219 218 216 213 209 206 203 200 197 195 194 193 193 194 195 196 197 197 197 196 195 195 194 194 194 195 195 196 196 196 197 198 198 199 200 200
216 217 218 219 220 220 220 221 221 220 220 220 220 220 221 223 225 226 227 227 227 227 227 227 226 224 222 221 220 219 216 216 216 218 219 220 222 224 226 226 225 224 224 222 220 219 219 219 219 218 217 217 216 213 209 205 202 199 197 196 195 194 194 194 195 196 197 198 198 197 196 196 196 195 196 196 197 197 198 198 199 200 201 201 202 202
216 217 218 219 219 220 220 220 220 220 219 219 219 219 219 220 222 223 223 223 223 223 223 223 223 220 217 214 212 210 207 206 208 210 213 214 217 220 222 222 222 222 223 223 222 221 220 220 219 218 216 214 213 212 210 206 203 200 197 196 196 196 196 196 196 197 198 198 198 198 197 197 197 197 197 198 198 199 200 200 201 202 203 203 204 205
216 217 217 218 219 219 219 219 219 219 218 218 218 219 219 219 220 220 221 221 221 221 220 219 218 216 213 209 207 206 205 204 204 206 207 208 211 213 215 216 216 216 217 219 220 221 222 223 222 221 217 213 210 208 208 207 205 202 199 198 198 197 197 197 197 198 199 199 199 199 198 198 198 199 199 199 200 201 202 203 204 205 205 206 207 208
216 216 217 218 218 219 218 218 218 218 218 218 218 218 218 218 218 219 219 220 219 219 218 216 215 212 209 205 203 203 205 206 206 207 206 206 207 209 210 210 210 210 211 213 215 218 220 222 223 222 220 218 213 208 206 205 204 202 201 200 199 198 198 198 198 199 200 200 200 200 200 200 200 200 201 201 202 203 204 205 207 208 209 209 210 211
215 216 216 216 217 217 217 217 217 217 218 218 218 218 218 218 218 218 219 219 219 218 216 215 212 210 208 205 202 202 204 207 209 209 208 207 207 207 208 207 207 207 208 211 213 215 217 218 218 215 214 214 213 211 208 205 203 202 203 202 201 199 199 200 200 201 201 202 202 201 201 202 202 202 203 204 204 206 207 208 210 211 212 212 213 213
215 215 215 216 215 215 215 215 215 216 217 217 218 218 219 219 219 219 220 220 220 219 216 212 209 206 206 206 205 205 205 207 209 210 210 210 209 208 207 205 205 205 207 210 212 214 215 215 213 210 206 205 205 207 206 205 204 203 203 202 200 200 201 202 202 202 203 203 202 202 203 203 204 205 206 206 208 209 211 212 213 214 215 216 216 217
215 215 216 215 215 215 215 215 215 216 216 217 218 218 219 220 220 221 221 222 222 221 219 215 211 208 206 206 207 208 208 209 209 210 211 211 210 209 207 205 204 205 206 208 211 213 213 212 210 208 203 201 200 201 202 203 203 203 202 200 199 200 201 202 203 203 203 203 203 204 204 205 206 207 208 210 211 213 214 215 216 217 218 219 219 219
216 216 215 215 215 215 215 216 216 217 217 218 218 219 219 219 220 220 221 222 222 222 220 217 214 210 207 207 208 209 209 210 210 210 211 211 211 209 207 205 204 205 207 208 210 211 210 209 207 205 202 200 199 199 199 201 203 202 201 199 199 201 202 202 203 204 205 204 205 205 205 206 208 210 211 213 214 216 217 218 219 219 220 221 221 221
217 217 216 215 215 215 216 216 217 217 218 218 219 219 220 220 220 220 220 220 221 220 219 217 214 211 209 209 209 210 210 211 211 211 211 211 210 209 208 206 205 206 207 208 209 210 210 209 207 204 201 200 199 198 198 200 202 202 201 200 200 201 201 202 203 204 205 205 205 206 207 208 210 211 213 214 216 217 219 220 220 221 222 223 223 223
217 217 216 216 216 216 216 216 217 217 218 218 218 219 219 219 219 219 219 219 219 218 217 217 215 213 211 211 211 211 211 211 211 212 211 211 210 209 208 206 206 206 207 208 208 208 208 209 208 207 204 202 200 199 199 200 201 201 201 201 200 201 201 201 202 203 204 205 206 207 208 210 212 213 214 216 217 218 220 221 222 222 223 224 224 225
217 216 216 216 216 216 216 216 216 216 217 217 217 218 218 218 218 218 218 218 217 216 215 215 215 215 215 214 214 213 213 212 212 212 212 211 209 208 207 206 206 206 206 207 207 206 205 205 206 207 207 205 201 199 199 200 200 201 201 201 201 201 202 202 203 204 204 205 206 208 210 211 213 214 216 217 218 219 220 221 222 223 224 224 225 225
217 216 216 216 216 216 216 216 216 215 216 216 216 216 217 217 217 217 217 216 215 215 214 214 214 214 214 215 216 217 216 216 215 214 213 212 210 209 207 206 206 206 206 206 206 205 204 202 202 202 204 204 203 200 199 200 201 201 201 201 201 202 203 204 205 206 207 208 209 210 211 213 214 215 216 218 219 220 220 221 223 224 224 225 226 226
218 217 216 216 216 216 216 215 215 215 215 215 215 215 216 216 216 216 216 216 215 214 214 215 215 214 213 213 214 216 216 217 217 217 215 214 212 211 208 207 206 205 205 205 205 205 204 203 202 200 199 199 200 200 199 200 201 201 201 201 202 202 203 204 206 208 209 210 212 213 214 214 215 216 217 219 219 220 221 222 223 225 226 226 227 227
218 217 217 216 216 216 215 215 214 214 215 215 215 215 215 215 214 214 215 215 216 216 216 216 216 216 214 213 213 213 214 214 215 215 215 214 213 212 210 208 207 205 204 203 203 203 203 203 203 202 199 198 197 197 197 199 200 202 202 202 202 202 203 204 206 208 210 212 214 215 215 216 216 217 218 219 220 221 221 222 224 226 227 227 228 228
217 216 216 216 216 215 215 214 214 215 215 215 215 215 215 214 213 213 213 213 215 216 217 217 217 217 217 216 215 215 214 214 213 213 213 212 212 211 210 209 207 205 203 201 200 200 200 201 202 203 202 200 198 197 197 198 199 201 202 202 202 202 203 204 206 208 211 213 215 216 217 217 218 219 220 220 221 221 221 223 224 226 228 229 229 229